Cairns, Australia

1:32 PM AEST on July 25, 2017 (GMT +1000)
Cairns International

Weather History for YBCS - March, 2014

Change the Weather History Date:

Thursday, March 6, 2014

  Actual Average Record
Temperature  
Mean Temperature 80 °F -  
Max Temperature 86 °F 86 °F 91 °F (2005)
Min Temperature 73 °F 73 °F 73 °F (1998)
Cooling Degree Days 14    
Growing Degree Days 30 (Base 50)    
Moisture  
Dew Point 68 °F    
Average Humidity 67    
Maximum Humidity 94    
Minimum Humidity 40    
Precipitation  
Precipitation 0.01 in 0.53 in - ()
Sea Level Pressure  
Sea Level Pressure 29.83 in    
Wind  
Wind Speed 13 mph ()    
Max Wind Speed 28 mph    
Max Gust Speed 36 mph    
Visibility 7.1 miles    
Events Rain    
Averages and records for this station are not official NWS values.
T = Trace of Precipitation, MM = Missing Value Source: Averaged Metar Reports

Daily Weather History Graph

Daily Weather History Graph

Search for Another Location

Airport or City:

Trip Planner

Search our weather history database for the weather conditions in past years. The results will help you decide how hot, cold, wet, or windy it might be!

Date:

Astronomy

Mar. 06, 2014 Rise Set
Actual Time 6:17 AM AEST 6:38 PM AEST
Civil Twilight 5:56 AM AEST 7:00 PM AEST
Nautical Twilight 5:30 AM AEST 7:25 PM AEST
Astronomical Twilight 5:05 AM AEST 7:51 PM AEST
Moon 10:38 AM AEST (3/6) 10:21 PM AEST (3/6)
Length of Visible Light 13h 04m
Length of Day
12h 20m
Waxing Crescent, 26% of the Moon is Illuminated
Mar 6
Waxing Crescent
Mar 8
First Quarter
Mar 17
Full
Mar 24
Last Quarter
Mar 31
New

Hourly Weather History & Observations

Time (AEST) Temp. Heat Index Dew Point Humidity Pressure Visibility Wind Dir Wind Speed Gust Speed Precip Events Conditions
12:00 AM 76 °F - 70 °F 76% 29.86 in - South 10.4 mph - -  
12:00 AM 77.0 °F - 69.8 °F 78% 29.86 in 6.2 mi South 10.4 mph - N/A   Partly Cloudy
12:30 AM 77.0 °F - 69.8 °F 78% 29.86 in 6.2 mi South 10.4 mph - N/A   Partly Cloudy
1:00 AM 76 °F - 70 °F 76% 29.85 in - South 10.4 mph - -  
1:00 AM 77.0 °F - 69.8 °F 78% 29.83 in 6.2 mi South 10.4 mph - N/A   Partly Cloudy
1:30 AM 75.2 °F - 69.8 °F 83% 29.83 in 6.2 mi South 10.4 mph - N/A   Partly Cloudy
2:00 AM 75.2 °F - 69.8 °F 83% 29.83 in 6.2 mi South 11.5 mph - N/A   Partly Cloudy
2:30 AM 77.0 °F - 69.8 °F 78% 29.80 in 6.2 mi South 12.7 mph - N/A   Partly Cloudy
3:00 AM 76 °F - 69 °F 74% 29.81 in - SSE 10.4 mph - -   Overcast
3:00 AM 77.0 °F - 69.8 °F 78% 29.80 in 6.2 mi SSE 10.4 mph - N/A   Partly Cloudy
3:30 AM 77.0 °F - 69.8 °F 78% 29.80 in 6.2 mi South 12.7 mph - N/A   Partly Cloudy
4:00 AM 76 °F - 69 °F 75% 29.81 in - South 12.7 mph - -  
4:00 AM 75.2 °F - 69.8 °F 83% 29.80 in 6.2 mi South 12.7 mph - N/A   Partly Cloudy
4:30 AM 75.2 °F - 69.8 °F 83% 29.80 in 6.2 mi South 11.5 mph - N/A   Partly Cloudy
5:00 AM 75.2 °F - 69.8 °F 83% 29.80 in 6.2 mi SSE 11.5 mph - N/A   Partly Cloudy
5:30 AM 75.2 °F - 69.8 °F 83% 29.80 in 6.2 mi SSE 11.5 mph - N/A   Partly Cloudy
6:00 AM 75 °F - 69 °F 77% 29.82 in 19 mi SSE 11.5 mph - -   Partly Cloudy
6:00 AM 75.2 °F - 69.8 °F 83% 29.80 in 6.2 mi SSE 11.5 mph - N/A   Partly Cloudy
6:30 AM 75.2 °F - 69.8 °F 83% 29.83 in 6.2 mi SSE 11.5 mph - N/A   Scattered Clouds
7:00 AM 75 °F - 70 °F 81% 29.85 in - SSE 11.5 mph - -  
7:00 AM 75.2 °F - 69.8 °F 83% 29.83 in 3.1 mi SSE 11.5 mph - N/A Rain Light Rain Showers
7:18 AM 73.4 °F - 71.6 °F 94% 29.83 in 4.3 mi SSE 10.4 mph - N/A Rain Light Rain Showers
7:30 AM 75.2 °F - 71.6 °F 89% 29.83 in 6.2 mi SSE 10.4 mph - N/A   Mostly Cloudy
8:00 AM 77.0 °F - 71.6 °F 83% 29.83 in 6.2 mi South 12.7 mph - N/A   Scattered Clouds
8:30 AM 78.8 °F - 71.6 °F 78% 29.86 in 6.2 mi SSE 16.1 mph - N/A   Partly Cloudy
9:00 AM 80 °F - 70 °F 65% 29.86 in 19 mi SSE 15.0 mph - -   Partly Cloudy
9:00 AM 80.6 °F 83.9 °F 69.8 °F 70% 29.86 in 6.2 mi SSE 15.0 mph - N/A   Partly Cloudy
9:30 AM 82.4 °F 86.3 °F 69.8 °F 66% 29.86 in 6.2 mi SSE 15.0 mph - N/A   Scattered Clouds
10:00 AM 84 °F - 71 °F 56% 29.88 in - SE 19.6 mph - -  
10:00 AM 84.2 °F 89.6 °F 71.6 °F 66% 29.86 in 6.2 mi SE 19.6 mph - N/A   Scattered Clouds
10:30 AM 84.2 °F 89.6 °F 71.6 °F 66% 29.86 in 6.2 mi SE 23.0 mph - N/A   Mostly Cloudy
11:00 AM 84.2 °F 88.4 °F 69.8 °F 62% 29.86 in 6.2 mi SE 21.9 mph - N/A   Mostly Cloudy
11:30 AM 84.2 °F 87.3 °F 68.0 °F 58% 29.86 in 6.2 mi SE 21.9 mph - N/A   Mostly Cloudy
12:00 PM 85 °F - 69 °F 49% 29.85 in 19 mi SSE 23.0 mph - -   Partly Cloudy
12:00 PM 84.2 °F 87.3 °F 68.0 °F 58% 29.83 in 6.2 mi SSE 23.0 mph - N/A   Mostly Cloudy
12:34 PM 86.0 °F 89.4 °F 68.0 °F 55% 29.83 in 6.2 mi SE 24.2 mph 35.7 mph N/A   Mostly Cloudy
1:00 PM 86 °F - 67 °F 44% 29.83 in - SSE 26.5 mph - -  
1:00 PM 86.0 °F 89.4 °F 68.0 °F 55% 29.83 in 6.2 mi SSE 26.5 mph - N/A   Mostly Cloudy
1:18 PM 86.0 °F 88.2 °F 66.2 °F 51% 29.80 in 6.2 mi SE 24.2 mph 35.7 mph N/A   Mostly Cloudy
1:30 PM 86.0 °F 88.2 °F 66.2 °F 51% 29.80 in 6.2 mi SE 27.6 mph - N/A   Mostly Cloudy
2:00 PM 84.2 °F 86.6 °F 66.2 °F 55% 29.80 in 6.2 mi SE 21.9 mph - N/A   Mostly Cloudy
2:30 PM 86.0 °F 88.2 °F 66.2 °F 51% 29.80 in 6.2 mi SE 24.2 mph - N/A   Mostly Cloudy
3:00 PM 86 °F - 65 °F 40% 29.80 in 19 mi SE 21.9 mph - -   Partly Cloudy
3:03 PM 84.2 °F 85.6 °F 64.4 °F 51% 29.80 in 6.2 mi SE 21.9 mph 33.4 mph N/A   Mostly Cloudy
3:30 PM 84.2 °F 85.6 °F 64.4 °F 51% 29.80 in 6.2 mi SE 23.0 mph - N/A   Mostly Cloudy
4:00 PM 84 °F - 65 °F 43% 29.81 in - SE 21.9 mph - -  
4:00 PM 84.2 °F 85.6 °F 64.4 °F 51% 29.80 in 6.2 mi SE 21.9 mph - N/A   Mostly Cloudy
4:30 PM 82.4 °F 84.6 °F 66.2 °F 58% 29.80 in 6.2 mi SE 21.9 mph - N/A   Mostly Cloudy
5:00 PM 82.4 °F 84.6 °F 66.2 °F 58% 29.80 in 6.2 mi SE 21.9 mph - N/A   Mostly Cloudy
5:30 PM 80.6 °F 82.7 °F 66.2 °F 61% 29.80 in 6.2 mi SE 20.7 mph - N/A   Mostly Cloudy
6:00 PM 80 °F - 64 °F 49% 29.83 in - SSE 19.6 mph - -  
6:00 PM 80.6 °F 82.3 °F 64.4 °F 58% 29.83 in 6.2 mi SSE 19.6 mph - N/A   Mostly Cloudy
6:30 PM 78.8 °F - 64.4 °F 61% 29.83 in 6.2 mi SSE 15.0 mph - N/A   Mostly Cloudy
7:00 PM 79 °F - 66 °F 55% 29.85 in - SSE 16.1 mph - -  
7:00 PM 78.8 °F - 66.2 °F 65% 29.83 in 6.2 mi SSE 16.1 mph - N/A   Mostly Cloudy
7:30 PM 78.8 °F - 66.2 °F 65% 29.86 in 6.2 mi South 12.7 mph - N/A   Mostly Cloudy
8:00 PM 77.0 °F - 66.2 °F 69% 29.86 in 6.2 mi South 12.7 mph - N/A   Mostly Cloudy
8:30 PM 77.0 °F - 66.2 °F 69% 29.86 in 6.2 mi South 12.7 mph - N/A   Mostly Cloudy
9:00 PM 77 °F - 67 °F 63% 29.88 in - South 10.4 mph - -  
9:00 PM 77.0 °F - 66.2 °F 69% 29.86 in 6.2 mi South 10.4 mph - N/A   Scattered Clouds
9:30 PM 77.0 °F - 66.2 °F 69% 29.86 in 6.2 mi South 10.4 mph - N/A   Scattered Clouds
10:00 PM 76 °F - 67 °F 66% 29.88 in - South 10.4 mph - -  
10:00 PM 77.0 °F - 66.2 °F 69% 29.86 in 6.2 mi South 10.4 mph - N/A   Scattered Clouds
10:30 PM 77.0 °F - 66.2 °F 69% 29.86 in 6.2 mi South 10.4 mph - N/A   Partly Cloudy
11:00 PM 77.0 °F - 66.2 °F 69% 29.86 in 6.2 mi South 10.4 mph - N/A   Partly Cloudy
11:30 PM 77.0 °F - 66.2 °F 69% 29.86 in 6.2 mi South 10.4 mph - N/A   Partly Cloudy